Location: Sternwarte_Laufen
(47.9344°N, 12.9346°E)
Time: 05:01:33
(UTC+02:00)

ISS - Pass Details

Date: 21 May 2017
Orbit: 402 x 409 km, 51.6° (Epoch: 23 May)

Event Time Altitude Azimuth Distance (km) Brightness Sun altitude
Rises 04:32:52 0° 292° (WNW) 2,329 -0.2 -7.5°
Reaches altitude 10° 04:34:58 10° 293° (WNW) 1,466 -1.2 -7.2°
Maximum altitude 04:38:15 85° 23° (NNE) 411 -3.8 -6.8°
Drops below altitude 10° 04:41:31 10° 112° (ESE) 1,456 -0.6 -6.4°
Sets 04:43:35 0° 113° (ESE) 2,312 0.4 -6.1°
